Stations météo

réclame
Mon MeteoGroup
La Coruna/Alvedro, Espagne (8002): Température de l'air & dewpoint: 15.01.2019 17:00:00 - 21.01.2019 17:00:00 (CET)La Coruna/Alvedro, Espagne (8002): Vitesse du vent: 15.01.2019 17:00:00 - 21.01.2019 17:00:00 (CET)La Coruna/Alvedro, Espagne (8002): Direction du vent: 15.01.2019 17:00:00 - 21.01.2019 17:00:00 (CET)La Coruna/Alvedro, Espagne (8002): reduced air pressure: 15.01.2019 17:00:00 - 21.01.2019 17:00:00 (CET)La Coruna/Alvedro, Espagne (8002): visibility: 15.01.2019 17:00:00 - 21.01.2019 17:00:00 (CET)
Date & Time tt [°C] td [°C] ff [km/h] ff [knt] dd ppp [hPa] vv [km]
21.01.2019 17:00:00 11,3 5,5 8 4 NNW 1025,4 10
21.01.2019 16:00:00 11,8 6,2 8 4 N 1025,7 10
21.01.2019 15:00:00 11,7 5,6 8 4 N 1026,1 10
21.01.2019 14:00:00 11,1 6,4 5 3 NNE 1026,7 30
21.01.2019 13:00:00 10,1 8,0 4 2 N 1027,3 15
21.01.2019 12:00:00 9,2 8,7 8 4 SSE 1027,4 14
21.01.2019 11:00:00 6,7 6,6 2 1 - 1027,4 2,0
21.01.2019 10:00:00 4,6 4,5 5 3 SSW 1027,1 1,0
21.01.2019 09:00:00 4,0 3,9 4 2 - 1026,7 3,0
21.01.2019 08:00:00 5,3 5,0 0 0 N 1026,5 10
21.01.2019 07:00:00 5,3 5,0 0 0 N 1026,2 2,0
21.01.2019 06:00:00 5,5 5,2 4 2 - 1026,0 0,5
21.01.2019 05:00:00 6,7 6,4 4 2 - 1025,9 9
21.01.2019 04:00:00 7,1 6,5 4 2 - 1025,9 10
21.01.2019 03:00:00 8,0 7,2 4 2 - 1025,8 6
21.01.2019 02:00:00 8,4 7,0 8 4 N 1026,1 30
21.01.2019 01:00:00 9,3 7,1 8 4 NNE 1025,8 10
21.01.2019 00:00:00 10,0 7,2 9 5 NNE 1025,3 17
20.01.2019 23:00:00 10,1 6,8 13 7 N 1024,9 10
20.01.2019 22:00:00 10,3 7,5 11 6 N 1024,5 10
20.01.2019 21:00:00 9,5 6,9 9 5 N 1024,4 10
20.01.2019 20:00:00 9,3 8,0 16 9 N 1023,9 10
20.01.2019 19:00:00 10,5 7,6 15 8 N 1023,2 19
20.01.2019 18:00:00 11,0 7,1 21 11 N 1022,8 25
20.01.2019 17:00:00 11,1 7,6 22 12 N 1022,0 30
20.01.2019 16:00:00 10,8 8,3 13 7 N 1021,7 10
20.01.2019 15:00:00 11,4 7,7 22 12 N 1021,4 23
20.01.2019 14:00:00 11,7 8,0 22 12 N 1021,5 10
20.01.2019 13:00:00 10,7 8,1 22 12 N 1021,7 10
20.01.2019 12:00:00 11,0 8,0 21 11 N 1021,3 10
20.01.2019 11:00:00 10,9 8,1 21 11 N 1020,2 10
20.01.2019 10:00:00 10,6 7,5 18 10 N 1019,4 10
20.01.2019 09:00:00 10,3 7,4 22 12 N 1018,7 10
20.01.2019 08:00:00 10,2 7,6 22 12 NNW 1018,0 8
20.01.2019 07:00:00 9,9 7,7 18 10 NNW 1017,5 30
20.01.2019 06:00:00 9,9 6,8 15 8 NNW 1017,3 10
20.01.2019 05:00:00 10,2 6,3 16 9 N 1017,2 10
20.01.2019 04:00:00 9,7 6,0 16 9 NNW 1017,1 10
20.01.2019 03:00:00 10,3 5,9 18 10 N 1016,2 10
20.01.2019 02:00:00 10,2 5,6 18 10 N 1015,7 10
20.01.2019 01:00:00 10,4 7,1 18 10 N 1015,3 10
20.01.2019 00:00:00 10,6 7,1 24 13 N 1014,4 30
19.01.2019 23:00:00 10,0 8,6 16 9 N 1013,5 4,8
19.01.2019 22:00:00 9,9 8,0 11 6 NNE 1012,7 10
19.01.2019 21:00:00 9,8 9,0 24 13 N 1011,3 24
19.01.2019 20:00:00 10,9 8,5 18 10 N 1009,9 30
19.01.2019 19:00:00 10,5 10,0 28 15 N 1007,6 10
19.01.2019 18:00:00 12,4 12,1 15 8 NW 1005,4 1,3
19.01.2019 17:00:00 11,9 11,6 4 2 S 1005,1 2,0
19.01.2019 16:00:00 11,7 11,2 8 4 S 1005,1 2,0
19.01.2019 15:00:00 11,9 11,3 9 5 SSE 1005,7 25
19.01.2019 14:00:00 11,1 10,5 9 5 SSE 1006,8 8
19.01.2019 13:00:00 10,8 9,9 18 10 SSW 1007,9 6
19.01.2019 12:00:00 10,5 9,3 22 12 SSW 1008,5 3,0
19.01.2019 11:00:00 9,8 8,4 34 18 SSW 1008,8 5
19.01.2019 10:00:00 9,7 8,0 34 18 SSW 1009,0 20
19.01.2019 09:00:00 9,7 7,8 24 13 SW 1009,4 10
19.01.2019 08:00:00 9,7 7,6 26 14 SSW 1010,1 10
19.01.2019 07:00:00 9,1 7,7 22 12 S 1011,3 10
19.01.2019 06:00:00 8,8 7,9 11 6 S 1013,1 6
19.01.2019 05:00:00 9,0 7,8 15 8 SSW 1014,3 10
19.01.2019 04:00:00 9,0 7,8 15 8 SW 1015,4 9
19.01.2019 03:00:00 8,9 7,7 13 7 SSW 1015,9 14
19.01.2019 02:00:00 8,9 7,7 18 10 SSW 1016,7 12
19.01.2019 01:00:00 8,9 7,7 15 8 SW 1017,3 10
19.01.2019 00:00:00 7,9 7,6 5 3 S 1017,6 10
18.01.2019 23:00:00 7,9 7,6 11 6 SSE 1017,7 0,5
18.01.2019 22:00:00 8,1 7,8 8 4 SSE 1017,7 5
18.01.2019 21:00:00 8,4 8,0 11 6 S 1017,8 5
18.01.2019 20:00:00 8,5 7,9 5 3 S 1017,8 4,0
18.01.2019 19:00:00 8,8 7,9 8 4 WNW 1017,7 3,0
18.01.2019 18:00:00 9,3 7,6 26 14 SW 1017,1 7
18.01.2019 17:00:00 10,0 7,4 24 13 SW 1017,0 10
18.01.2019 16:00:00 10,2 7,4 18 10 SSW 1017,4 10
18.01.2019 15:00:00 9,9 7,3 24 13 SSW 1018,2 10
18.01.2019 14:00:00 10,1 6,9 18 10 SW 1018,6 30
18.01.2019 13:00:00 9,2 6,3 16 9 SW 1019,1 10
18.01.2019 12:00:00 7,8 5,9 9 5 S 1019,9 10
18.01.2019 11:00:00 6,5 5,0 15 8 SSE 1020,0 10
18.01.2019 10:00:00 6,4 4,7 11 6 S 1020,1 10
18.01.2019 09:00:00 5,8 5,1 11 6 S 1020,0 10
18.01.2019 08:00:00 5,5 4,9 11 6 S 1020,7 6
18.01.2019 07:00:00 5,8 4,9 11 6 S 1020,8 8
18.01.2019 06:00:00 5,6 4,6 9 5 S 1021,0 9
18.01.2019 05:00:00 5,2 4,5 11 6 S 1021,4 10
18.01.2019 04:00:00 4,7 4,1 13 7 SSE 1022,3 15
18.01.2019 03:00:00 4,4 4,0 13 7 S 1022,6 12
18.01.2019 02:00:00 4,0 3,6 13 7 S 1023,1 9
18.01.2019 01:00:00 4,1 3,7 9 5 SSE 1023,8 4,0
18.01.2019 00:00:00 4,1 3,7 11 6 SSE 1024,0 9
17.01.2019 23:00:00 4,4 4,0 9 5 S 1024,4 4,0
17.01.2019 22:00:00 4,6 4,2 8 4 S 1024,0 0,3
17.01.2019 21:00:00 6,0 5,4 4 2 - 1024,0 10
17.01.2019 20:00:00 6,9 5,6 4 2 - 1024,0 10
17.01.2019 19:00:00 7,9 5,6 5 3 S 1023,9 10
17.01.2019 18:00:00 9,2 5,9 4 2 - 1023,6 10
17.01.2019 17:00:00 10,1 5,1 8 4 N 1023,3 30
17.01.2019 16:00:00 10,8 6,0 5 3 N 1022,9 30
17.01.2019 15:00:00 11,1 5,5 9 5 N 1023,0 30
17.01.2019 14:00:00 10,1 5,8 8 4 NNE 1023,4 10
17.01.2019 13:00:00 10,8 6,0 5 3 WSW 1023,9 30
17.01.2019 12:00:00 8,7 7,1 4 2 WSW 1024,2 23
17.01.2019 11:00:00 7,0 6,3 9 5 S 1024,0 17
17.01.2019 10:00:00 4,8 4,4 11 6 S 1023,6 10
17.01.2019 09:00:00 4,7 4,3 9 5 S 1023,1 7
17.01.2019 08:00:00 5,3 4,6 11 6 SSW 1022,7 21
17.01.2019 07:00:00 6,0 5,1 5 3 E 1022,4 10
17.01.2019 06:00:00 5,2 4,8 8 4 S 1022,2 8
17.01.2019 05:00:00 4,8 4,2 9 5 S 1022,0 1,1
17.01.2019 04:00:00 6,1 4,9 9 5 SSW 1021,9 26
17.01.2019 03:00:00 6,5 5,8 8 4 S 1021,7 10
17.01.2019 02:00:00 7,4 5,5 4 2 - 1021,7 10
17.01.2019 01:00:00 9,1 4,2 8 4 NNW 1021,5 30
17.01.2019 00:00:00 9,7 5,2 13 7 N 1021,1 30
16.01.2019 23:00:00 10,1 5,7 9 5 N 1020,8 10
16.01.2019 22:00:00 10,1 6,2 16 9 N 1020,5 30
16.01.2019 21:00:00 9,8 7,7 13 7 NNW 1020,0 19
16.01.2019 20:00:00 9,3 8,8 9 5 N 1019,4 10
16.01.2019 19:00:00 9,5 8,9 11 6 N 1018,6 7
16.01.2019 18:00:00 10,0 9,2 15 8 NNW 1017,9 3,5
16.01.2019 17:00:00 12,2 7,5 11 6 WNW 1017,4 30
16.01.2019 16:00:00 13,1 7,3 8 4 W 1017,1 10
16.01.2019 15:00:00 12,3 7,4 11 6 W 1017,0 30
16.01.2019 14:00:00 11,7 8,0 11 6 W 1017,6 10
16.01.2019 13:00:00 11,3 8,7 9 5 W 1018,1 10
16.01.2019 12:00:00 9,9 8,8 15 8 W 1018,7 10
16.01.2019 11:00:00 9,9 9,0 5 3 WNW 1018,2 10
16.01.2019 10:00:00 9,4 8,0 4 2 SW 1017,7 30
16.01.2019 09:00:00 9,5 8,3 13 7 WSW 1017,5 10
16.01.2019 08:00:00 9,8 8,2 15 8 W 1017,3 10
16.01.2019 07:00:00 9,8 7,7 13 7 W 1017,1 8
16.01.2019 06:00:00 10,8 6,5 8 4 SW 1017,2 30
16.01.2019 05:00:00 10,6 6,9 5 3 SSW 1017,5 10
16.01.2019 04:00:00 9,8 7,2 9 5 SSE 1017,6 13
16.01.2019 03:00:00 9,3 7,1 8 4 SSE 1017,8 10
16.01.2019 02:00:00 9,3 7,1 8 4 S 1018,2 9
16.01.2019 01:00:00 8,5 7,0 2 1 S 1018,5 10
16.01.2019 00:00:00 7,0 5,8 5 3 S 1018,9 6
15.01.2019 23:00:00 6,4 5,7 2 1 - 1019,4 8
15.01.2019 22:00:00 6,1 5,2 9 5 S 1019,5 9
15.01.2019 21:00:00 7,1 5,7 8 4 S 1019,6 9
15.01.2019 20:00:00 8,3 6,0 8 4 S 1019,2 10
15.01.2019 19:00:00 9,3 6,7 4 2 - 1018,9 10
15.01.2019 18:00:00 11,0 6,7 4 2 N 1018,7 12
15.01.2019 17:00:00 12,2 6,0 8 4 NNE 1018,7 10

tt = Température de l'air
td = dewpoint
ff = Vitesse du vent
dd = Direction du vent
ppp = reduced air pressure
vv = visibility

stations d'obs. à proximité